Location: Unspecified
(0.0000°N, 0.0000°E)
Time: 00:18:01
(UTC+00:00)

Hubble Space Telescope - Visible Passes

Search period start: 26 January 2021 00:00
Search period end: 05 February 2021 00:00
Orbit: 536 x 539 km, 28.5° (Epoch: 25 January)

Date Brightness Start Highest point End Pass type
(mag) Time Alt. Az. Time Alt. Az. Time Alt. Az.
29 Jan 2.7 19:49:20 10° NNW 19:50:45 18° NNW 19:50:45 18° NNW visible
30 Jan 1.5 19:38:14 10° NW 19:41:27 38° N 19:41:27 38° N visible
31 Jan 0.7 19:27:15 10° NW 19:31:19 61° NNE 19:32:14 47° E visible
01 Feb 3.7 05:42:50 10° S 05:44:43 13° SSE 05:46:36 10° SE visible
01 Feb 0.7 19:16:22 10° WNW 19:20:29 89° NNE 19:23:06 22° ESE visible
02 Feb 3.5 05:31:11 10° SSW 05:33:56 17° SSE 05:36:42 10° ESE visible
02 Feb 1.1 19:05:35 10° WNW 19:09:40 64° SSW 19:13:46 10° SE visible
03 Feb 3.0 05:19:49 10° SSW 05:23:09 23° SSE 05:26:28 10° E visible
03 Feb 1.9 18:54:53 10° WNW 18:58:50 44° SSW 19:02:48 10° SE visible
04 Feb 2.4 05:08:38 10° SW 05:12:21 32° SSE 05:16:03 10° E visible
04 Feb 2.6 18:44:20 10° W 18:48:00 31° SSW 18:51:42 10° SSE visible
